This is the latest recevied weather packets stored in our database for station/object IW8XOI-10. If no packets are shown the sender has not sent any weather packets the latest 10 day(s).
| Time | Temp. | Humidity | Pressure | Rain* | Wind** | Luminosity | Snow |
|---|---|---|---|---|---|---|---|
| 1787967725 | 36.11° C | 26% | 1028 hPa | - | - | - | - |
| 1787964127 | 36.67° C | 26% | 1028.2 hPa | - | - | - | - |
| 1787960525 | 37.22° C | 26% | 1028.8 hPa | - | - | - | - |
| 1787956925 | 37.78° C | 26% | 1029.3 hPa | - | - | - | - |
| 1787953325 | 38.89° C | 25% | 1029.4 hPa | - | - | - | - |
| 1787949725 | 39.44° C | 25% | 1029.3 hPa | - | - | - | - |
| 1787946125 | 40.56° C | 25% | 1029.2 hPa | - | - | - | - |
| 1787942525 | 41.11° C | 25% | 1029 hPa | - | - | - | - |
| 1787938926 | 42.22° C | 25% | 1028.6 hPa | - | - | - | - |
| 1787935326 | 42.78° C | 25% | 1029 hPa | - | - | - | - |
| 1787931726 | 42.22° C | 25% | 1029.4 hPa | - | - | - | - |
| 1787928126 | 42.22° C | 25% | 1029.8 hPa | - | - | - | - |
| 1787924526 | 41.67° C | 25% | 1030.1 hPa | - | - | - | - |
| 1787920926 | 41.11° C | 27% | 1030.4 hPa | - | - | - | - |
| 1787917326 | 40.56° C | 28% | 1031.2 hPa | - | - | - | - |
| 1787913726 | 39.44° C | 28% | 1031.5 hPa | - | - | - | - |
| 1787910126 | 37.78° C | 29% | 1031.8 hPa | - | - | - | - |
| 1787906529 | 36.67° C | 30% | 1032 hPa | - | - | - | - |
| 1787902926 | 36.11° C | 30% | 1031.9 hPa | - | - | - | - |
| 1787899385 | 36.11° C | 30% | 1031.7 hPa | - | - | - | - |
| 1787899329 | 36.11° C | 30% | 1031.7 hPa | - | - | - | - |
| 1787895727 | 36.11° C | 30% | 1031.8 hPa | - | - | - | - |
| 1787892127 | 36.11° C | 31% | 1031.4 hPa | - | - | - | - |
| 1787888527 | 36.67° C | 30% | 1030.9 hPa | - | - | - | - |
| 1787884927 | 36.67° C | 31% | 1031.1 hPa | - | - | - | - |
* Rain since midnight (hover to see other rain measurements)
** Current wind speed in m/s (hover to see current wind gust speed)